Home   Weather   West Covina   Past weeks

Flag for USA Past Weather in West Covina, California, USA — Yesterday and Last 2 Weeks

Now
63 °F

Clear.


Feels Like: 63 °F
Forecast: 56 / 81 °F
Wind: 3 mph from Southwest

Location: Fullerton Municipal Airport

Current Time: Apr 24, 2017 at 9:58:38 pm

Latest Report: Apr 24, 2017 at 8:53 pm


Visibility: 10 mi

Pressure: 29.86 "Hg

Humidity: 68%

Dew Point: 52 °F

Location of West CovinaLocation

Past Weather in West Covina — Graph

°F

West Covina Temperature Yesterday

Maximum temperature yesterday: 79 °F (at 12:53 pm)
Minimum temperature yesterday: 61 °F (at 11:53 pm)
Average temperature yesterday: 67 °F

High & Low Weather Summary for the Past Weeks

 TemperatureHumidityPressure
High91 °F (Apr 21, 3:53 pm)93% (Apr 18, 9:34 pm)30.12 "Hg (Apr 18, 9:34 pm)
Low50 °F (Apr 10, 6:53 am)19% (Apr 21, 4:53 pm)29.80 "Hg (Apr 22, 3:53 pm)
Average66 °F60%29.98 "Hg
* Reported Apr 9 7:53 pm — Apr 24 7:53 pm, West Covina, Weather by CustomWeather, © 2017

Note: Actual official high and low records may vary slightly from our data, if they occured in-between our weather recording intervals... More about our weather records

Advertising

West Covina Weather History for the Previous 24 Hours

Scroll right to see more
 ConditionsComfort  
Time TempWeatherWind HumidityBarometerVisibility
7:53 pm
Mon, Apr 24
63 °FClear.6 mph65%29.86 "Hg10 mi
6:53 pm66 °FSunny.8 mph56%29.85 "Hg10 mi
5:53 pm69 °FBroken clouds.8 mph61%29.86 "Hg10 mi
4:53 pm69 °FBroken clouds.9 mph61%29.86 "Hg10 mi
3:53 pm71 °FSunny.7 mph55%29.88 "Hg10 mi
2:53 pm72 °FPartly sunny.8 mph53%29.90 "Hg10 mi
1:53 pm73 °FPartly sunny.7 mph51%29.91 "Hg10 mi
12:53 pm71 °FPartly sunny.12 mph57%29.93 "Hg10 mi
11:53 am70 °FPartly sunny.6 mph57%29.93 "Hg10 mi
10:53 am69 °FMostly cloudy.8 mph59%29.93 "Hg10 mi
9:53 am66 °FMostly cloudy.6 mph65%29.93 "Hg10 mi
8:53 am65 °FMostly cloudy.5 mph70%29.92 "Hg10 mi
7:53 am63 °FPartly sunny.3 mph78%29.90 "Hg10 mi
6:53 am63 °FPartly sunny.No wind75%29.89 "Hg10 mi
5:53 am63 °FOvercast.5 mph75%29.86 "Hg10 mi
4:53 am62 °FOvercast.3 mph78%29.86 "Hg10 mi
3:53 am62 °FOvercast.3 mph75%29.85 "Hg10 mi
2:53 am62 °FOvercast.6 mph78%29.85 "Hg10 mi
1:53 am62 °FOvercast.5 mph78%29.86 "Hg10 mi
12:53 am62 °FOvercast.5 mph83%29.86 "Hg10 mi
12:38 am62 °FOvercast.3 mph83%29.87 "Hg10 mi
11:53 pm
Sun, Apr 23
61 °FClear.No wind83%29.87 "Hg10 mi
10:53 pm62 °FPassing clouds.3 mph80%29.87 "Hg10 mi
10:42 pm62 °FPassing clouds.5 mph80%29.87 "Hg10 mi
10:32 pm62 °FPartly cloudy.3 mph83%29.87 "Hg10 mi
9:53 pm62 °FClear.3 mph83%29.86 "Hg10 mi
Weather by CustomWeather, © 2017

See weather overviewHow to use our weather pages